User: anonymous   Login
Location: Unspecified
(0.0000°N, 0.0000°E)
Time: 23:19:47
(UTC+00:00)
Language:

STARLINK-2568 - Orbit

View from above orbital plane
View from above orbital plane
View from above satellite
View from above satellite

Ground track
Ground track

The orbit is defined by the following mean orbital elements,

1 48406U          26145.56637557 +.00000000 +00000-0 +83428-4 0 00006
2 48406  53.1612 338.2868 0001466  98.5556 261.5611 15.31700814    07
Epoch (UTC): 25 May 2026 13:35:34
Eccentricity: 0.0001466
inclination: 53.1612°
perigee height: 470 km
apogee height: 472 km
right ascension of ascending node: 338.2868°
argument of perigee: 98.5556°
revolutions per day: 15.31700814
mean anomaly at epoch: 261.5611°

The dashed part of the orbit path shows where the satellite is in the earth's shadow,  

DLR